DM5RC Weather Reports


time (UTC)temp
C
wind
direction
speed
KPH
gust
KPH
rain 1hr
cm
rain 24hr
cm
rain mn
cm
humidity
%
barometer
mb
20190418125420 20 76 12.9 22.5 0.00 0.00 0.00 28 1028.5
20190418124920 20 58 11.3 35.4 0.00 0.00 0.00 31 1028.5
20190418124851 20 58 11.3 35.4 0.00 0.00 0.00 30 1028.5
20190418124422 20 71 9.7 35.4 0.00 0.00 0.00 30 1028.6
20190418123921 21 98 11.3 22.5 0.00 0.00 0.00 28 1028.7
20190418123851 21 101 11.3 22.5 0.00 0.00 0.00 28 1028.7
20190418123421 20 106 11.3 22.5 0.00 0.00 0.00 29 1028.9
20190418122921 21 116 11.3 25.7 0.00 0.00 0.00 29 1028.7
20190418122851 21 114 11.3 25.7 0.00 0.00 0.00 29 1028.8
20190418122421 20 89 12.9 30.6 0.00 0.00 0.00 28 1028.7
20190418121926 20 68 11.3 30.6 0.00 0.00 0.00 29 1028.8
20190418121849 20 66 11.3 30.6 0.00 0.00 0.00 30 1028.8
20190418121420 20 86 11.3 22.5 0.00 0.00 0.00 29 1028.8
20190418120920 20 113 11.3 22.5 0.00 0.00 0.00 30 1028.8
20190418120853 20 113 11.3 22.5 0.00 0.00 0.00 29 1028.8
20190418120420 20 85 11.3 30.6 0.00 0.00 0.00 29 1028.8
20190418115922 20 62 9.7 30.6 0.00 0.00 0.00 29 1028.9
20190418115852 20 63 9.7 30.6 0.00 0.00 0.00 29 1028.9
20190418115421 20 89 9.7 22.5 0.00 0.00 0.00 30 1028.8
20190418114921 20 93 9.7 22.5 0.00 0.00 0.00 30 1028.9
20190418114850 20 86 9.7 22.5 0.00 0.00 0.00 30 1029.0
20190418114421 20 81 9.7 22.5 0.00 0.00 0.00 31 1029.0
20190418113921 20 106 9.7 30.6 0.00 0.00 0.00 30 1029.0
20190418113851 20 115 9.7 30.6 0.00 0.00 0.00 30 1029.0
20190418113420 20 106 9.7 30.6 0.00 0.00 0.00 30 1029.0
20190418112920 20 84 11.3 22.5 0.00 0.00 0.00 29 1029.0
20190418112854 20 76 11.3 22.5 0.00 0.00 0.00 29 1029.0
20190418112422 20 90 11.3 25.7 0.00 0.00 0.00 30 1028.9
20190418111922 20 86 12.9 25.7 0.00 0.00 0.00 30 1029.1
20190418111851 20 86 12.9 29.0 0.00 0.00 0.00 30 1029.0
20190418111422 20 68 12.9 29.0 0.00 0.00 0.00 31 1029.1
20190418110922 20 69 14.5 29.0 0.00 0.00 0.00 31 1029.1
20190418110852 20 67 16.1 25.7 0.00 0.00 0.00 31 1029.1
20190418110421 20 64 16.1 30.6 0.00 0.00 0.00 32 1029.0
20190418105921 19 59 12.9 30.6 0.00 0.00 0.00 31 1029.1
20190418105851 20 58 12.9 30.6 0.00 0.00 0.00 31 1029.1
20190418105421 20 63 11.3 30.6 0.00 0.00 0.00 31 1029.0
20190418104921 20 79 14.5 33.8 0.00 0.00 0.00 31 1029.1
20190418104852 20 81 14.5 33.8 0.00 0.00 0.00 31 1029.0
20190418104420 20 69 14.5 33.8 0.00 0.00 0.00 32 1029.0
20190418103920 19 53 12.9 29.0 0.00 0.00 0.00 34 1029.1
20190418103851 18 53 12.9 29.0 0.00 0.00 0.00 34 1029.1
20190418103422 18 56 9.7 29.0 0.00 0.00 0.00 35 1029.1
20190418102922 19 77 9.7 20.9 0.00 0.00 0.00 35 1029.2
20190418102421 19 78 11.3 29.0 0.00 0.00 0.00 35 1029.2
20190418101921 18 59 11.3 29.0 0.00 0.00 0.00 35 1029.3
20190418101850 18 58 11.3 29.0 0.00 0.00 0.00 35 1029.2
20190418101421 18 59 9.7 22.5 0.00 0.00 0.00 37 1029.2
20190418100922 19 61 8.0 22.5 0.00 0.00 0.00 36 1029.3
20190418100851 19 62 9.7 22.5 0.00 0.00 0.00 36 1029.3
20190418100421 18 85 9.7 14.5 0.00 0.00 0.00 37 1029.3
20190418095921 18 85 9.7 22.5 0.00 0.00 0.00 37 1029.4
20190418095422 18 68 8.0 22.5 0.00 0.00 0.00 38 1029.5
20190418094922 18 90 9.7 22.5 0.00 0.00 0.00 37 1029.5
20190418094851 18 95 9.7 22.5 0.00 0.00 0.00 37 1029.5
20190418094422 18 86 9.7 22.5 0.00 0.00 0.00 38 1029.5
20190418093921 18 68 8.0 22.5 0.00 0.00 0.00 39 1029.5
20190418093850 18 65 8.0 22.5 0.00 0.00 0.00 39 1029.5
20190418093421 18 68 9.7 22.5 0.00 0.00 0.00 39 1029.5
20190418092921 17 70 9.7 22.5 0.00 0.00 0.00 40 1029.5
20190418092854 17 68 9.7 22.5 0.00 0.00 0.00 40 1029.5
20190418092421 17 62 9.7 22.5 0.00 0.00 0.00 41 1029.6
20190418091921 17 65 11.3 22.5 0.00 0.00 0.00 40 1029.7
20190418091851 17 65 11.3 22.5 0.00 0.00 0.00 41 1029.6
20190418091421 17 66 11.3 22.5 0.00 0.00 0.00 43 1029.7
20190418090920 16 60 9.7 22.5 0.00 0.00 0.00 44 1029.7
20190418090851 16 61 9.7 22.5 0.00 0.00 0.00 44 1029.7
20190418090422 16 63 9.7 20.9 0.00 0.00 0.00 45 1029.8
20190418085922 16 59 8.0 20.9 0.00 0.00 0.00 45 1029.8
20190418085851 16 57 8.0 17.7 0.00 0.00 0.00 45 1029.8
20190418085421 16 56 6.4 17.7 0.00 0.00 0.00 45 1029.8
20190418084921 16 59 4.8 14.5 0.00 0.00 0.00 45 1029.8
20190418084852 16 62 6.4 14.5 0.00 0.00 0.00 45 1029.8
20190418084421 16 68 8.0 14.5 0.00 0.00 0.00 46 1029.8
20190418083921 16 63 8.0 20.9 0.00 0.00 0.00 45 1029.8
20190418083851 16 62 8.0 20.9 0.00 0.00 0.00 45 1029.8
20190418083420 15 57 6.4 20.9 0.00 0.00 0.00 47 1029.8
20190418082920 15 65 4.8 20.9 0.00 0.00 0.00 47 1029.7
20190418082854 15 66 4.8 17.7 0.00 0.00 0.00 46 1029.8
20190418082420 15 71 4.8 12.9 0.00 0.00 0.00 48 1029.7
20190418081923 15 62 4.8 12.9 0.00 0.00 0.00 49 1029.8
20190418081853 15 64 4.8 12.9 0.00 0.00 0.00 49 1029.7
20190418081422 14 64 4.8 9.7 0.00 0.00 0.00 50 1029.7
20190418080928 13 60 4.8 12.9 0.00 0.00 0.00 51 1029.7
20190418080921 14 60 4.8 12.9 0.00 0.00 0.00 51 1029.7
20190418080853 13 60 4.8 12.9 0.00 0.00 0.00 51 1029.7
20190418080421 13 59 4.8 12.9 0.00 0.00 0.00 52 1029.7
20190418075921 13 62 6.4 9.7 0.00 0.00 0.00 53 1029.6
20190418075851 13 61 6.4 9.7 0.00 0.00 0.00 53 1029.6
20190418075421 13 56 4.8 12.9 0.00 0.00 0.00 52 1029.6
20190418074920 13 55 4.8 12.9 0.00 0.00 0.00 53 1029.6
20190418074851 13 58 4.8 12.9 0.00 0.00 0.00 53 1029.6
20190418074420 13 65 3.2 12.9 0.00 0.00 0.00 52 1029.6
20190418073922 13 63 4.8 12.9 0.00 0.00 0.00 53 1029.6
20190418073855 13 55 4.8 12.9 0.00 0.00 0.00 53 1029.6
20190418073422 12 55 4.8 12.9 0.00 0.00 0.00 54 1029.6
20190418072922 12 60 4.8 12.9 0.00 0.00 0.00 54 1029.6
20190418072854 12 62 4.8 12.9 0.00 0.00 0.00 55 1029.6
20190418072421 12 56 4.8 9.7 0.00 0.00 0.00 55 1029.5
20190418071921 12 51 4.8 9.7 0.00 0.00 0.00 56 1029.5
20190418071854 12 50 3.2 9.7 0.00 0.00 0.00 56 1029.5
20190418071421 11 55 3.2 9.7 0.00 0.00 0.00 56 1029.5
20190418070921 11 60 1.6 9.7 0.00 0.00 0.00 57 1029.5
20190418070851 11 68 1.6 6.4 0.00 0.00 0.00 57 1029.5
20190418070421 11 71 3.2 6.4 0.00 0.00 0.00 57 1029.5
20190418065920 11 68 3.2 9.7 0.00 0.00 0.00 58 1029.4
20190418065853 11 62 4.8 9.7 0.00 0.00 0.00 58 1029.4
20190418065422 10 61 4.8 9.7 0.00 0.00 0.00 59 1029.4
20190418064922 10 55 4.8 9.7 0.00 0.00 0.00 60 1029.4
20190418064852 10 54 3.2 9.7 0.00 0.00 0.00 60 1029.3
20190418064421 10 54 3.2 9.7 0.00 0.00 0.00 61 1029.3
20190418063921 10 66 1.6 9.7 0.00 0.00 0.00 61 1029.3
20190418063850 10 69 1.6 9.7 0.00 0.00 0.00 61 1029.3
20190418063422 10 82 1.6 6.4 0.00 0.00 0.00 61 1029.2
20190418062922 9 66 3.2 4.8 0.00 0.00 0.00 62 1029.2
20190418062851 9 64 3.2 4.8 0.00 0.00 0.00 62 1029.2
20190418062421 9 58 3.2 4.8 0.00 0.00 0.00 63 1029.1
20190418061921 8 55 4.8 9.7 0.00 0.00 0.00 63 1029.1
20190418061421 8 54 4.8 9.7 0.00 0.00 0.00 64 1029.1
20190418060921 8 54 4.8 9.7 0.00 0.00 0.00 64 1029.0
20190418060850 8 54 4.8 9.7 0.00 0.00 0.00 65 1029.1
20190418060421 8 55 4.8 9.7 0.00 0.00 0.00 64 1029.0
20190418055920 8 54 4.8 9.7 0.00 0.00 0.00 65 1029.0
20190418055853 7 53 4.8 9.7 0.00 0.00 0.00 65 1029.0
20190418055420 7 54 4.8 9.7 0.00 0.00 0.00 65 1028.9
20190418054922 7 54 4.8 9.7 0.00 0.00 0.00 67 1028.9
20190418054851 7 53 4.8 9.7 0.00 0.00 0.00 67 1028.9
20190418054422 7 52 3.2 9.7 0.00 0.00 0.00 67 1028.9
20190418053921 7 55 1.6 6.4 0.00 0.00 0.00 68 1028.9
20190418053855 7 56 1.6 6.4 0.00 0.00 0.00 68 1028.8
20190418053421 6 61 1.6 6.4 0.00 0.00 0.00 68 1028.8
20190418052921 6 61 1.6 4.8 0.00 0.00 0.00 70 1028.7
20190418052850 6 60 1.6 4.8 0.00 0.00 0.00 70 1028.7
20190418052421 6 60 3.2 4.8 0.00 0.00 0.00 70 1028.7
20190418051920 6 57 4.8 4.8 0.00 0.00 0.00 70 1028.6
20190418051854 6 56 4.8 4.8 0.00 0.00 0.00 71 1028.7
20190418051420 6 55 4.8 6.4 0.00 0.00 0.00 71 1028.6
20190418050930 6 56 4.8 6.4 0.00 0.00 0.00 70 1028.6
20190418050920 6 55 4.8 6.4 0.00 0.00 0.00 70 1028.6
20190418050851 6 56 4.8 6.4 0.00 0.00 0.00 70 1028.6
20190418050422 5 55 4.8 6.4 0.00 0.00 0.00 71 1028.6
20190418045922 5 55 4.8 9.7 0.00 0.00 0.00 71 1028.6
20190418045854 5 54 4.8 9.7 0.00 0.00 0.00 71 1028.5
20190418045421 5 54 4.8 9.7 0.00 0.00 0.00 71 1028.5
20190418044921 5 54 4.8 6.4 0.00 0.00 0.00 71 1028.5
20190418044850 5 53 4.8 6.4 0.00 0.00 0.00 71 1028.5
20190418044421 5 54 4.8 6.4 0.00 0.00 0.00 71 1028.5
20190418043921 5 57 4.8 9.7 0.00 0.00 0.00 71 1028.4
20190418043854 5 57 4.8 9.7 0.00 0.00 0.00 71 1028.4
20190418043421 5 56 4.8 9.7 0.00 0.00 0.00 71 1028.4
20190418042921 5 54 3.2 9.7 0.00 0.00 0.00 71 1028.3
20190418042851 5 54 3.2 9.7 0.00 0.00 0.00 71 1028.3
20190418042421 4 56 1.6 6.4 0.00 0.00 0.00 72 1028.2
20190418041921 4 60 1.6 6.4 0.00 0.00 0.00 72 1028.1
20190418041850 4 61 1.6 6.4 0.00 0.00 0.00 72 1028.1
20190418041420 4 62 1.6 4.8 0.00 0.00 0.00 72 1028.1
20190418040923 3 60 1.6 4.8 0.00 0.00 0.00 72 1028.0
20190418040921 3 60 1.6 4.8 0.00 0.00 0.00 72 1028.0
20190418040852 3 60 1.6 4.8 0.00 0.00 0.00 72 1028.0
20190418040421 3 58 1.6 4.8 0.00 0.00 0.00 72 1028.0
20190418035923 3 60 1.6 4.8 0.00 0.00 0.00 73 1027.9
20190418035921 3 59 1.6 4.8 0.00 0.00 0.00 73 1027.9
20190418035850 3 60 1.6 4.8 0.00 0.00 0.00 73 1027.9
20190418035422 3 61 1.6 4.8 0.00 0.00 0.00 72 1027.9
20190418034921 3 62 0.0 4.8 0.00 0.00 0.00 72 1027.8
20190418034850 3 61 0.0 4.8 0.00 0.00 0.00 72 1027.8
20190418034421 3 60 0.0 4.8 0.00 0.00 0.00 72 1027.7
20190418033921 3 66 0.0 1.6 0.00 0.00 0.00 72 1027.7
20190418033851 3 66 0.0 1.6 0.00 0.00 0.00 72 1027.7
20190418033421 3 0 0.0 1.6 0.00 0.00 0.00 72 1027.8
20190418032920 3 0 0.0 1.6 0.00 0.00 0.00 72 1027.8
20190418032851 3 0 0.0 0.0 0.00 0.00 0.00 72 1027.8
20190418032420 3 0 0.0 1.6 0.00 0.00 0.00 71 1027.8
20190418031922 4 0 0.0 4.8 0.00 0.00 0.00 70 1027.8
20190418031852 4 0 0.0 4.8 0.00 0.00 0.00 70 1027.8
20190418031422 4 0 0.0 4.8 0.00 0.00 0.00 70 1027.8
20190418030921 4 0 0.0 1.6 0.00 0.00 0.00 70 1027.8
20190418030851 4 0 0.0 1.6 0.00 0.00 0.00 69 1027.8
20190418030421 4 66 0.0 1.6 0.00 0.00 0.00 69 1027.8
20190418025922 5 62 0.0 1.6 0.00 0.00 0.00 69 1027.8
20190418025851 5 62 0.0 1.6 0.00 0.00 0.00 69 1027.8
20190418025421 5 62 1.6 1.6 0.00 0.00 0.00 68 1027.8
20190418024936 5 66 0.0 1.6 0.00 0.00 0.00 68 1027.8
20190418024921 5 65 1.6 1.6 0.00 0.00 0.00 68 1027.8
20190418024855 5 66 0.0 1.6 0.00 0.00 0.00 68 1027.8
20190418024420 5 71 0.0 1.6 0.00 0.00 0.00 69 1027.8
20190418023920 5 0 0.0 1.6 0.00 0.00 0.00 69 1027.8
20190418023851 5 0 0.0 1.6 0.00 0.00 0.00 69 1027.8
20190418023422 5 0 0.0 1.6 0.00 0.00 0.00 70 1027.8
20190418022921 5 0 0.0 1.6 0.00 0.00 0.00 70 1027.7
20190418022850 4 0 0.0 1.6 0.00 0.00 0.00 71 1027.7
20190418022420 4 0 0.0 1.6 0.00 0.00 0.00 71 1027.7
20190418021920 4 0 0.0 1.6 0.00 0.00 0.00 72 1027.7
20190418021852 4 0 0.0 1.6 0.00 0.00 0.00 72 1027.7
20190418021422 4 0 0.0 1.6 0.00 0.00 0.00 72 1027.7
20190418020922 4 0 0.0 0.0 0.00 0.00 0.00 72 1027.7
20190418020851 3 0 0.0 1.6 0.00 0.00 0.00 72 1027.6
20190418020422 4 0 0.0 1.6 0.00 0.00 0.00 70 1027.6
20190418015921 4 0 0.0 1.6 0.00 0.00 0.00 70 1027.6
20190418015850 4 0 0.0 1.6 0.00 0.00 0.00 70 1027.6
20190418015421 4 0 0.0 1.6 0.00 0.00 0.00 70 1027.5
20190418014922 5 0 0.0 1.6 0.00 0.00 0.00 69 1027.5
20190418014850 4 0 0.0 1.6 0.00 0.00 0.00 70 1027.5
20190418014421 5 0 0.0 1.6 0.00 0.00 0.00 69 1027.5
20190418013920 5 0 0.0 1.6 0.00 0.00 0.00 69 1027.5
20190418013851 5 0 0.0 1.6 0.00 0.00 0.00 69 1027.5
20190418013420 5 0 0.0 1.6 0.00 0.00 0.00 69 1027.5
20190418012930 5 0 0.0 1.6 0.00 0.00 0.00 70 1027.4
20190418012922 5 0 0.0 1.6 0.00 0.00 0.00 69 1027.4
20190418012851 5 0 0.0 1.6 0.00 0.00 0.00 70 1027.4
20190418012422 4 0 0.0 1.6 0.00 0.00 0.00 70 1027.5
20190418011924 4 0 0.0 1.6 0.00 0.00 0.00 69 1027.4
20190418011921 4 0 0.0 1.6 0.00 0.00 0.00 69 1027.4
20190418011853 4 0 0.0 1.6 0.00 0.00 0.00 69 1027.4
20190418011420 5 0 0.0 1.6 0.00 0.00 0.00 68 1027.4
20190418010922 5 0 0.0 0.0 0.00 0.00 0.00 68 1027.4
20190418010920 5 0 0.0 0.0 0.00 0.00 0.00 68 1027.4
20190418010851 5 0 0.0 0.0 0.00 0.00 0.00 68 1027.4
20190418010422 5 0 0.0 0.0 0.00 0.00 0.00 69 1027.3
20190418005922 5 0 0.0 1.6 0.00 0.00 0.00 69 1027.3
20190418005851 5 0 0.0 1.6 0.00 0.00 0.00 68 1027.3
20190418005421 5 0 0.0 1.6 0.00 0.00 0.00 68 1027.4
20190418004921 5 0 0.0 1.6 0.00 0.00 0.00 68 1027.4
20190418004852 5 0 0.0 1.6 0.00 0.00 0.00 68 1027.4
20190418004421 5 0 0.0 1.6 0.00 0.00 0.00 68 1027.4
20190418003921 5 0 0.0 1.6 0.00 0.00 0.00 69 1027.3
20190418003850 5 0 0.0 1.6 0.00 0.00 0.00 69 1027.3
20190418003420 5 0 0.0 1.6 0.00 0.00 0.00 69 1027.2
20190418002920 5 0 0.0 1.6 0.00 0.00 0.00 68 1027.3
20190418002851 5 0 0.0 1.6 0.00 0.00 0.00 68 1027.3
20190418002420 5 0 0.0 1.6 0.00 0.00 0.00 67 1027.2
20190418001920 5 0 0.0 1.6 0.00 0.00 0.00 65 1027.2
20190418001852 5 0 0.0 0.0 0.00 0.00 0.00 65 1027.2
20190418001422 6 0 0.0 0.0 0.00 0.00 0.00 64 1027.2
20190418000922 6 0 0.0 0.0 0.00 0.00 0.00 63 1027.2
20190418000852 6 0 0.0 0.0 0.00 0.00 0.00 63 1027.2
20190418000426 6 0 0.0 0.0 0.00 0.00 0.00 62 1027.2
20190417235921 6 0 0.0 1.6 0.00 0.00 0.00 62 1027.2
20190417235850 6 0 0.0 1.6 0.00 0.00 0.00 62 1027.2
20190417235422 6 0 0.0 1.6 0.00 0.00 0.00 61 1027.2
20190417234924 6 0 0.0 1.6 0.00 0.00 0.00 60 1027.2
20190417234922 6 0 0.0 1.6 0.00 0.00 0.00 61 1027.2
20190417234851 6 0 0.0 1.6 0.00 0.00 0.00 60 1027.2
20190417234421 6 0 0.0 1.6 0.00 0.00 0.00 60 1027.2
20190417233920 6 0 0.0 1.6 0.00 0.00 0.00 60 1027.2
20190417233851 6 0 0.0 1.6 0.00 0.00 0.00 59 1027.2
20190417233422 6 0 0.0 1.6 0.00 0.00 0.00 59 1027.2
20190417232922 6 0 0.0 1.6 0.00 0.00 0.00 62 1027.2
20190417232851 6 0 0.0 1.6 0.00 0.00 0.00 61 1027.2
20190417232421 6 0 0.0 1.6 0.00 0.00 0.00 62 1027.2
20190417231921 6 0 0.0 1.6 0.00 0.00 0.00 62 1027.2
20190417231856 6 0 0.0 0.0 0.00 0.00 0.00 63 1027.2
20190417231421 6 0 0.0 0.0 0.00 0.00 0.00 63 1027.2
20190417230921 6 0 0.0 0.0 0.00 0.00 0.00 62 1027.2
20190417230850 6 0 0.0 1.6 0.00 0.00 0.00 62 1027.1
20190417230421 6 0 0.0 1.6 0.00 0.00 0.00 62 1027.1
20190417225920 6 0 0.0 1.6 0.00 0.00 0.00 62 1027.1
20190417225852 6 0 0.0 0.0 0.00 0.00 0.00 61 1027.1
20190417225420 6 0 0.0 0.0 0.00 0.00 0.00 61 1027.1
20190417224922 6 0 0.0 0.0 0.00 0.00 0.00 60 1027.0
20190417224852 6 0 0.0 0.0 0.00 0.00 0.00 60 1027.0
20190417224422 6 0 0.0 0.0 0.00 0.00 0.00 60 1027.0
20190417223921 7 0 0.0 0.0 0.00 0.00 0.00 59 1027.0
20190417223851 7 0 0.0 1.6 0.00 0.00 0.00 59 1027.0
20190417223421 7 0 0.0 1.6 0.00 0.00 0.00 58 1027.0
20190417222921 7 0 0.0 1.6 0.00 0.00 0.00 58 1027.0
20190417222850 7 0 0.0 1.6 0.00 0.00 0.00 58 1027.0
20190417222421 7 0 0.0 1.6 0.00 0.00 0.00 59 1026.9
20190417221921 7 0 0.0 1.6 0.00 0.00 0.00 59 1026.9
20190417221850 7 0 0.0 1.6 0.00 0.00 0.00 59 1026.9
20190417221420 7 0 0.0 1.6 0.00 0.00 0.00 59 1026.9
20190417220920 7 0 0.0 1.6 0.00 0.00 0.00 59 1026.9
20190417220851 7 0 0.0 1.6 0.00 0.00 0.00 59 1026.8
20190417220422 7 0 0.0 1.6 0.00 0.00 0.00 58 1026.8
20190417215922 7 0 0.0 1.6 0.00 0.00 0.00 58 1026.8
20190417215851 7 0 0.0 0.0 0.00 0.00 0.00 58 1026.8
20190417215421 8 0 0.0 0.0 0.00 0.00 0.00 58 1026.8
20190417214921 8 0 0.0 0.0 0.00 0.00 0.00 56 1026.8
20190417214421 8 0 0.0 0.0 0.00 0.00 0.00 56 1026.7
20190417213921 8 0 0.0 0.0 0.00 0.00 0.00 55 1026.7
20190417213850 8 0 0.0 1.6 0.00 0.00 0.00 55 1026.7
20190417213421 8 0 0.0 1.6 0.00 0.00 0.00 53 1026.7
20190417212924 9 0 0.0 0.0 0.00 0.00 0.00 51 1026.6
20190417212920 9 0 0.0 1.6 0.00 0.00 0.00 52 1026.6
20190417212852 9 0 0.0 0.0 0.00 0.00 0.00 51 1026.6
20190417212420 9 0 0.0 0.0 0.00 0.00 0.00 51 1026.6
20190417211922 9 0 0.0 1.6 0.00 0.00 0.00 51 1026.7
20190417211853 9 0 0.0 1.6 0.00 0.00 0.00 51 1026.6
20190417211422 9 0 0.0 1.6 0.00 0.00 0.00 51 1026.6
20190417210926 9 0 0.0 1.6 0.00 0.00 0.00 51 1026.5
20190417210922 9 0 0.0 0.0 0.00 0.00 0.00 51 1026.6
20190417210854 9 0 0.0 1.6 0.00 0.00 0.00 51 1026.5
20190417210421 9 0 0.0 1.6 0.00 0.00 0.00 53 1026.5
20190417210204 9 0 0.0 0.0 0.00 0.00 0.00 52 1026.5
20190417210121 9 0 0.0 0.0 0.00 0.00 0.00 52 1026.5
20190417210030 9 0 0.0 0.0 0.00 0.00 0.00 52 1026.5
20190417205921 9 0 0.0 1.6 0.00 0.00 0.00 53 1026.5
20190417205851 9 0 0.0 0.0 0.00 0.00 0.00 52 1026.5
20190417205421 9 0 0.0 0.0 0.00 0.00 0.00 52 1026.5
20190417204921 9 0 0.0 0.0 0.00 0.00 0.00 52 1026.5
20190417204852 9 0 0.0 1.6 0.00 0.00 0.00 52 1026.5
20190417204420 9 0 0.0 1.6 0.00 0.00 0.00 53 1026.5
20190417203920 10 0 0.0 1.6 0.00 0.00 0.00 51 1026.4
20190417203851 10 0 0.0 0.0 0.00 0.00 0.00 51 1026.5
20190417203420 10 0 0.0 0.0 0.00 0.00 0.00 49 1026.5
20190417202926 10 0 0.0 0.0 0.00 0.00 0.00 48 1026.5
20190417202851 10 0 0.0 0.0 0.00 0.00 0.00 48 1026.5
20190417202421 10 0 0.0 0.0 0.00 0.00 0.00 47 1026.5
20190417201921 10 0 0.0 0.0 0.00 0.00 0.00 48 1026.5
20190417201851 10 0 0.0 1.6 0.00 0.00 0.00 48 1026.5
20190417201421 10 0 0.0 1.6 0.00 0.00 0.00 48 1026.5
20190417200921 11 0 0.0 1.6 0.00 0.00 0.00 48 1026.5
20190417200850 11 0 0.0 1.6 0.00 0.00 0.00 47 1026.5
20190417200421 11 0 0.0 1.6 0.00 0.00 0.00 46 1026.5
20190417195920 11 0 0.0 1.6 0.00 0.00 0.00 45 1026.5
20190417195851 11 0 0.0 1.6 0.00 0.00 0.00 44 1026.5
20190417195420 11 0 0.0 1.6 0.00 0.00 0.00 44 1026.4
20190417194922 11 0 0.0 1.6 0.00 0.00 0.00 44 1026.4
20190417194851 11 0 0.0 1.6 0.00 0.00 0.00 44 1026.4
20190417194422 11 0 0.0 1.6 0.00 0.00 0.00 44 1026.4
20190417193921 12 0 0.0 1.6 0.00 0.00 0.00 44 1026.4
20190417193852 12 0 0.0 4.8 0.00 0.00 0.00 43 1026.4
20190417193421 12 0 0.0 6.4 0.00 0.00 0.00 43 1026.5
20190417192921 12 0 0.0 6.4 0.00 0.00 0.00 43 1026.4
20190417192853 12 0 0.0 6.4 0.00 0.00 0.00 43 1026.4
20190417192421 12 0 0.0 1.6 0.00 0.00 0.00 43 1026.4
20190417191921 12 0 0.0 1.6 0.00 0.00 0.00 43 1026.4
20190417191854 12 0 0.0 4.8 0.00 0.00 0.00 43 1026.4
20190417191420 12 0 0.0 4.8 0.00 0.00 0.00 43 1026.4
20190417190920 12 0 0.0 4.8 0.00 0.00 0.00 43 1026.3
20190417190853 12 0 0.0 1.6 0.00 0.00 0.00 43 1026.3
20190417190422 12 0 0.0 1.6 0.00 0.00 0.00 43 1026.3
20190417185922 13 0 0.0 1.6 0.00 0.00 0.00 42 1026.3
20190417185851 13 0 0.0 1.6 0.00 0.00 0.00 42 1026.2
20190417185421 13 0 0.0 1.6 0.00 0.00 0.00 43 1026.2
20190417184921 13 0 0.0 1.6 0.00 0.00 0.00 42 1026.1
20190417184851 13 0 0.0 1.6 0.00 0.00 0.00 42 1026.1
20190417184421 13 0 0.0 1.6 0.00 0.00 0.00 41 1026.1
20190417183921 13 0 0.0 1.6 0.00 0.00 0.00 41 1026.0
20190417183852 13 0 0.0 1.6 0.00 0.00 0.00 41 1026.0
20190417183421 13 0 0.0 1.6 0.00 0.00 0.00 40 1025.9
20190417182920 14 0 0.0 1.6 0.00 0.00 0.00 40 1025.9
20190417182853 14 79 0.0 1.6 0.00 0.00 0.00 40 1025.9
20190417182420 14 73 0.0 1.6 0.00 0.00 0.00 39 1025.9
20190417181922 14 106 0.0 1.6 0.00 0.00 0.00 39 1025.8
20190417181852 14 110 0.0 1.6 0.00 0.00 0.00 39 1025.8
20190417181422 14 132 0.0 1.6 0.00 0.00 0.00 39 1025.7
20190417180922 15 90 1.6 1.6 0.00 0.00 0.00 39 1025.6
20190417180850 15 86 1.6 1.6 0.00 0.00 0.00 39 1025.6
20190417180421 15 86 0.0 1.6 0.00 0.00 0.00 38 1025.6
20190417175931 15 114 0.0 1.6 0.00 0.00 0.00 36 1025.6
20190417175921 15 104 0.0 1.6 0.00 0.00 0.00 37 1025.6
20190417175852 15 114 0.0 1.6 0.00 0.00 0.00 36 1025.6
20190417175421 16 122 0.0 1.6 0.00 0.00 0.00 35 1025.6
20190417174921 16 103 1.6 1.6 0.00 0.00 0.00 35 1025.5
20190417174855 16 102 1.6 1.6 0.00 0.00 0.00 35 1025.4
20190417174420 16 77 1.6 4.8 0.00 0.00 0.00 34 1025.3
20190417173920 16 78 1.6 4.8 0.00 0.00 0.00 33 1025.3
20190417173851 16 79 1.6 4.8 0.00 0.00 0.00 33 1025.3
20190417173422 17 83 1.6 4.8 0.00 0.00 0.00 32 1025.3
20190417172922 17 76 1.6 4.8 0.00 0.00 0.00 31 1025.3
20190417172854 17 77 1.6 4.8 0.00 0.00 0.00 31 1025.2
20190417172421 17 80 1.6 4.8 0.00 0.00 0.00 31 1025.3
20190417171921 17 105 3.2 4.8 0.00 0.00 0.00 30 1025.2
20190417171851 17 103 3.2 4.8 0.00 0.00 0.00 30 1025.2
20190417171421 18 105 3.2 9.7 0.00 0.00 0.00 29 1025.2
20190417170921 18 112 3.2 9.7 0.00 0.00 0.00 29 1025.2
20190417170850 18 111 3.2 9.7 0.00 0.00 0.00 28 1025.2
20190417170421 18 109 1.6 9.7 0.00 0.00 0.00 28 1025.2
20190417165920 18 84 3.2 12.9 0.00 0.00 0.00 28 1025.1
20190417165852 18 87 3.2 12.9 0.00 0.00 0.00 29 1025.1
20190417165420 18 105 4.8 12.9 0.00 0.00 0.00 29 1025.1
20190417164922 18 103 4.8 12.9 0.00 0.00 0.00 28 1025.0
20190417164856 18 97 4.8 12.9 0.00 0.00 0.00 27 1025.1
20190417164422 18 81 6.4 12.9 0.00 0.00 0.00 28 1025.0
20190417163921 18 70 8.0 17.7 0.00 0.00 0.00 28 1025.0
20190417163852 18 71 9.7 17.7 0.00 0.00 0.00 28 1025.0
20190417163421 18 65 9.7 20.9 0.00 0.00 0.00 28 1025.0
20190417162921 18 61 9.7 22.5 0.00 0.00 0.00 28 1025.0
20190417162853 18 60 9.7 22.5 0.00 0.00 0.00 28 1025.0
20190417162421 18 57 8.0 22.5 0.00 0.00 0.00 29 1025.0
20190417161921 18 58 4.8 22.5 0.00 0.00 0.00 28 1025.0
20190417161852 18 60 4.8 20.9 0.00 0.00 0.00 29 1025.0
20190417161420 18 65 4.8 14.5 0.00 0.00 0.00 29 1025.0
20190417160920 18 87 6.4 14.5 0.00 0.00 0.00 29 1025.0
20190417160852 18 90 6.4 14.5 0.00 0.00 0.00 30 1025.0
20190417160422 18 84 6.4 14.5 0.00 0.00 0.00 31 1025.0
20190417155922 18 71 8.0 17.7 0.00 0.00 0.00 32 1025.0
20190417155851 18 71 8.0 17.7 0.00 0.00 0.00 32 1025.0
20190417155421 18 71 9.7 17.7 0.00 0.00 0.00 32 1025.0
20190417154921 18 62 11.3 30.6 0.00 0.00 0.00 32 1025.0
20190417154852 18 60 9.7 30.6 0.00 0.00 0.00 32 1025.1
20190417154421 18 59 6.4 30.6 0.00 0.00 0.00 31 1025.1
20190417153921 18 72 4.8 25.7 0.00 0.00 0.00 31 1025.1
20190417153853 19 80 4.8 17.7 0.00 0.00 0.00 31 1025.1
20190417153421 19 101 6.4 12.9 0.00 0.00 0.00 32 1025.1
20190417152920 19 104 8.0 17.7 0.00 0.00 0.00 32 1025.1
20190417152852 19 99 9.7 17.7 0.00 0.00 0.00 32 1025.1
20190417152420 18 76 9.7 22.5 0.00 0.00 0.00 32 1025.1
20190417151922 18 67 9.7 22.5 0.00 0.00 0.00 32 1025.0
20190417151853 18 68 9.7 22.5 0.00 0.00 0.00 32 1025.0
20190417151422 18 70 9.7 22.5 0.00 0.00 0.00 32 1025.0
20190417150921 18 68 8.0 25.7 0.00 0.00 0.00 32 1025.0
20190417150421 18 78 8.0 25.7 0.00 0.00 0.00 31 1025.0
20190417145921 19 85 9.7 17.7 0.00 0.00 0.00 31 1025.1
20190417145850 19 80 9.7 17.7 0.00 0.00 0.00 32 1025.1
20190417145421 19 68 9.7 17.7 0.00 0.00 0.00 31 1025.1
20190417144921 18 59 11.3 22.5 0.00 0.00 0.00 32 1025.1
20190417144854 18 59 11.3 22.5 0.00 0.00 0.00 32 1025.0
20190417144421 18 61 14.5 25.7 0.00 0.00 0.00 32 1025.1
20190417143920 18 59 12.9 29.0 0.00 0.00 0.00 33 1025.1
20190417143851 18 58 12.9 29.0 0.00 0.00 0.00 33 1025.0
20190417143422 18 58 11.3 29.0 0.00 0.00 0.00 32 1025.0
20190417142922 18 62 8.0 25.7 0.00 0.00 0.00 33 1025.0
20190417142858 18 65 8.0 25.7 0.00 0.00 0.00 33 1025.1
20190417142421 18 68 8.0 25.7 0.00 0.00 0.00 32 1025.1
20190417141921 19 75 9.7 22.5 0.00 0.00 0.00 33 1025.0
20190417141850 19 69 9.7 25.7 0.00 0.00 0.00 33 1025.0
20190417141421 18 63 11.3 25.7 0.00 0.00 0.00 35 1025.0
20190417140921 18 59 9.7 25.7 0.00 0.00 0.00 34 1025.1
20190417140853 18 61 9.7 22.5 0.00 0.00 0.00 34 1025.1
20190417140421 18 59 9.7 22.5 0.00 0.00 0.00 34 1025.1
20190417135920 18 57 6.4 20.9 0.00 0.00 0.00 36 1025.1
20190417135851 18 59 6.4 20.9 0.00 0.00 0.00 37 1025.1
20190417135420 18 64 6.4 17.7 0.00 0.00 0.00 35 1025.2
20190417134926 18 101 9.7 20.9 0.00 0.00 0.00 37 1025.2
20190417134922 18 98 8.0 20.9 0.00 0.00 0.00 36 1025.2
20190417134851 18 101 9.7 20.9 0.00 0.00 0.00 37 1025.2
20190417134422 18 82 9.7 30.6 0.00 0.00 0.00 38 1025.3
20190417133921 18 58 9.7 30.6 0.00 0.00 0.00 38 1025.3
20190417133852 18 54 9.7 30.6 0.00 0.00 0.00 38 1025.3
20190417133421 18 52 9.7 29.0 0.00 0.00 0.00 39 1025.2
20190417132921 18 52 11.3 25.7 0.00 0.00 0.00 39 1025.3
20190417132851 18 54 9.7 25.7 0.00 0.00 0.00 40 1025.3
20190417132421 17 61 9.7 25.7 0.00 0.00 0.00 41 1025.3
20190417131921 18 61 6.4 25.7 0.00 0.00 0.00 41 1025.4
20190417131852 18 63 6.4 25.7 0.00 0.00 0.00 41 1025.4
20190417131420 17 78 8.0 20.9 0.00 0.00 0.00 42 1025.5
20190417130920 17 79 12.9 25.7 0.00 0.00 0.00 43 1025.6
20190417130851 17 77 12.9 25.7 0.00 0.00 0.00 43 1025.6
20190417130422 17 61 12.9 29.0 0.00 0.00 0.00 45 1025.6
20190417125922 17 60 12.9 29.0 0.00 0.00 0.00 44 1025.6
20190417125852 17 58 12.9 29.0 0.00 0.00 0.00 44 1025.6